Content
SEND FEEDBACK

Daily
Averages
Monthly
Summary
Switzerland

GENEVA, SWITZERLAND


Home > Europe > Switzerland
Elevation: 1364 feet     Latitude: 46 15N     Longitude: 006 08E

WEATHER
 
SELECT A DAY
Number of Records: 305,523;   Date Range: 7/1/96 - 7/23/14
 
SHARE

PRINT THIS DATA

[ ← Previous Day ]
WEATHER ALMANAC - AUGUST 29, 2013
[ Next Day → ]
[ °C ]   °F
Weather ElementAverageHighLow
Temperature63.5 °F72 °F (4:00 pm)55.4 °F (2:20 am)
Dewpoint53.9 °F57.2 °F (9:20 am)51 °F (3:00 am)
Humidity70 %88 % (12:50 am)38 % (6:00 pm)
Barometer30.13 in30.15 in (7:50 am)30.09 in (12:50 am)
Wind Speed4.2 mph11.5 mph (11:20 am)
Weather ElementAverage
Visibility6.3 mi
Wind DirectionENE (66.1 °)

Weather ElementTotal
Precipitation---
Heating Degree Days1.3 (Base 65)
Growing Degree Days13.7 (Base 50)
Averaged from 64 records on August 29, 2013
WEATHER CONDITIONS BREAKOUT
WIND DIRECTION BREAKOUT
WEATHER BY HOUR - AUGUST 29, 2013
[ °C ]   °F
Local TimeTemperatureDewpointHumidityBarometerVisibilityWind DirectionWind SpeedGust SpeedPrecipitationEventsConditions
12:50 AM57.2 °F53.6 °F88 %30.09 inVariable2.3 mphClear
1:00 AM58.0 °F52.0 °F76 %30.10 inNorth (350°)3.5 mph
1:20 AM57.2 °F53.6 °F88 %30.12 in6.2 miVariable2.3 mphPartly Cloudy
1:50 AM57.2 °F53.6 °F88 %30.12 in6.2 miVariable2.3 mphPartly Cloudy
2:20 AM55.4 °F51.8 °F88 %30.12 in6.2 miVariable1.2 mphPartly Cloudy
2:50 AM57.2 °F51.8 °F82 %30.12 in6.2 miCalmPartly Cloudy
3:00 AM56.0 °F51.0 °F77 %30.12 inNNE (20°)2.3 mph
3:50 AM57.2 °F53.6 °F88 %30.12 in6.2 miCalmMostly Cloudy
4:00 AM57.0 °F52.0 °F78 %30.12 inNW (310°)2.3 mph
4:20 AM57.2 °F51.8 °F82 %30.12 in6.2 miCalmMostly Cloudy
4:50 AM57.2 °F51.8 °F82 %30.12 in6.2 miCalmMostly Cloudy
5:20 AM57.2 °F51.8 °F82 %30.12 in6.2 miWNW (300°)3.5 mphMostly Cloudy
5:50 AM57.2 °F51.8 °F82 %30.12 in6.2 miCalmMostly Cloudy
6:00 AM57.0 °F52.0 °F78 %30.12 inWest (280°)1.2 mph
6:20 AM57.2 °F53.6 °F88 %30.12 in6.2 miCalmMostly Cloudy
6:50 AM57.2 °F53.6 °F88 %30.12 in6.2 miVariable1.2 mphMostly Cloudy
7:00 AM58.0 °F53.0 °F78 %30.13 inNNW (330°)3.5 mph
7:20 AM59.0 °F53.6 °F82 %30.12 in6.2 miVariable3.5 mphMostly Cloudy
7:50 AM59.0 °F55.4 °F88 %30.15 in6.2 miVariable2.3 mphMostly Cloudy
8:00 AM60.0 °F54.0 °F76 %30.14 in7.0 miNNE (30°)3.5 mphMist
8:20 AM60.8 °F55.4 °F82 %30.15 in6.2 miVariable1.2 mphMostly Cloudy
8:50 AM60.8 °F55.4 °F82 %30.15 in6.2 miENE (70°)4.6 mphMostly Cloudy
9:00 AM61.0 °F55.0 °F76 %30.15 inNE (40°)3.5 mph
9:20 AM60.8 °F57.2 °F88 %30.15 in6.2 miVariable3.5 mphMostly Cloudy
9:50 AM62.6 °F57.2 °F82 %30.15 in6.2 miENE (70°)6.9 mphMostly Cloudy
10:00 AM62.0 °F56.0 °F73 %30.15 inENE (70°)6.9 mph
10:20 AM62.6 °F57.2 °F82 %30.15 in6.2 miENE (60°)8.1 mphScattered Clouds
10:50 AM64.4 °F55.4 °F73 %30.15 in6.2 miENE (60°)10.4 mphScattered Clouds
11:20 AM64.4 °F55.4 °F73 %30.15 in6.2 miNE (50°)11.5 mphScattered Clouds
11:50 AM66.2 °F55.4 °F68 %30.15 in6.2 miENE (70°)8.1 mphScattered Clouds
12:00 PM65.0 °F55.0 °F61 %30.14 inEast (90°)8.1 mph
12:20 PM66.2 °F55.4 °F68 %30.15 in6.2 miEast (80°)8.1 mphPartly Cloudy
12:50 PM68.0 °F55.4 °F64 %30.15 in6.2 miENE (70°)6.9 mphPartly Cloudy
1:00 PM67.0 °F55.0 °F55 %30.13 inNE (40°)8.1 mph
1:20 PM69.8 °F55.4 °F60 %30.15 in6.2 miNE (50°)9.2 mphPartly Cloudy
1:50 PM69.8 °F53.6 °F56 %30.15 in6.2 miNE (50°)8.1 mphPartly Cloudy
2:00 PM69.0 °F53.0 °F47 %30.12 in7.0 miNE (50°)9.2 mphHaze
2:20 PM69.8 °F53.6 °F56 %30.15 in6.2 miNE (50°)10.4 mphPartly Cloudy
2:50 PM71.6 °F53.6 °F53 %30.15 in6.2 miENE (60°)8.1 mphPartly Cloudy
3:00 PM71.0 °F52.0 °F41 %30.10 inNE (50°)9.2 mph
3:20 PM71.6 °F53.6 °F53 %30.15 in6.2 miENE (60°)8.1 mphPartly Cloudy
3:50 PM71.6 °F53.6 °F53 %30.15 in6.2 miENE (60°)8.1 mphPartly Cloudy
4:00 PM72.0 °F52.0 °F39 %30.09 inNE (40°)8.1 mph
4:20 PM71.6 °F53.6 °F53 %30.15 in6.2 miENE (60°)8.1 mphPartly Cloudy
4:50 PM71.6 °F53.6 °F53 %30.15 in6.2 miENE (60°)8.1 mphPartly Cloudy
5:20 PM71.6 °F53.6 °F53 %30.15 in6.2 miENE (60°)8.1 mphPartly Cloudy
5:50 PM71.6 °F53.6 °F53 %30.12 in6.2 miNNE (30°)5.8 mphPartly Cloudy
6:00 PM71.0 °F51.0 °F38 %30.09 inNNE (30°)4.6 mph
6:20 PM71.6 °F53.6 °F53 %30.12 in6.2 miNE (40°)4.6 mphPartly Cloudy
6:50 PM69.8 °F53.6 °F56 %30.12 in6.2 miVariable3.5 mphPartly Cloudy
7:00 PM70.0 °F53.0 °F44 %30.10 inNorth2.3 mph
7:20 PM69.8 °F55.4 °F60 %30.12 in6.2 miVariable1.2 mphScattered Clouds
7:50 PM69.8 °F55.4 °F60 %30.15 in6.2 miVariable1.2 mphScattered Clouds
8:00 PM66.0 °F55.0 °F60 %30.12 in11.0 miNNW (330°)2.3 mphPartly Cloudy
8:20 PM66.2 °F57.2 °F73 %30.15 in6.2 miVariable1.2 mphScattered Clouds
8:50 PM64.4 °F55.4 °F73 %30.15 in6.2 miVariable2.3 mphScattered Clouds
9:00 PM64.0 °F54.0 °F63 %30.13 inNorth (350°)2.3 mph
9:20 PM62.6 °F55.4 °F77 %30.15 in6.2 miVariable1.2 mphScattered Clouds
9:50 PM60.8 °F53.6 °F77 %30.15 in6.2 miCalmPartly Cloudy
10:00 PM62.0 °F52.0 °F61 %30.15 inEast (100°)1.2 mph
10:20 PM60.8 °F53.6 °F77 %30.15 inNW (310°)1.2 mphClear
10:50 PM59.0 °F53.6 °F82 %30.15 inCalmClear
11:20 PM59.0 °F53.6 °F82 %30.15 inVariable2.3 mphClear
11:50 PM57.2 °F53.6 °F88 %30.15 inCalmClear
Hourly data recorded from LSGG, located miles away from Geneva, Switzerland







STORIES FROM OUR PARTNERS